period_start,C,m1,H,J0,J1,J2,J3,J4,J5,JA,JB,JC,JD,JJ,JK,JN,#
2015-03-05 00:01:44,0.02,4.84,0.00,21.72,27.35,29.58,4.86,27.42,1025.86,2027.99,1927.98,2202.00,2384.98,350.37,352.76,24.85,0000 0000 0000 0000 000000
2015-03-05 00:06:45,0.12,4.84,0.00,21.66,27.33,29.53,4.87,27.36,1025.89,2027.99,1927.20,2201.78,2384.35,349.91,352.09,24.88,0000 0000 0000 0000 000000
2015-03-05 00:11:46,0.08,4.84,0.00,21.66,27.32,29.56,4.88,27.37,1025.89,2027.99,1926.74,2201.06,2384.00,350.07,352.44,24.91,0000 0000 0000 0000 000000
2015-03-05 00:16:48,0.09,4.84,0.00,21.61,27.32,29.50,4.87,27.52,1025.89,2027.99,1926.02,2200.89,2383.38,349.74,352.45,24.93,0000 0000 0000 0000 000000
2015-03-05 00:21:49,0.12,4.85,0.00,21.63,27.30,29.50,4.81,27.44,1025.91,2027.99,1925.36,2200.14,2382.99,349.56,352.23,24.96,0000 0000 0000 0000 000000
2015-03-05 00:26:50,0.06,4.85,0.00,21.58,27.30,29.47,4.82,27.46,1025.91,2027.99,1924.84,2199.99,2382.35,349.95,352.59,24.99,0000 0000 0000 0000 000000
2015-03-05 00:31:51,0.14,4.85,0.00,21.59,27.29,29.53,4.87,27.50,1025.96,2027.99,1924.00,2199.24,2381.85,349.75,352.51,25.02,0000 0000 0000 0000 000000
2015-03-05 00:36:52,0.12,4.86,0.00,21.67,27.27,29.60,4.86,27.63,1026.23,2027.99,1923.10,2198.82,2381.05,349.73,352.40,25.05,0000 0000 0000 0000 000000
2015-03-05 00:41:54,0.17,4.86,0.00,21.61,27.27,29.63,4.93,27.72,1026.30,2027.99,1922.06,2198.03,2380.26,350.68,353.33,25.08,0000 0000 0000 0000 000000
2015-03-05 00:46:55,0.19,4.87,0.00,21.61,27.26,29.47,4.81,27.43,1026.33,2027.99,1920.97,2197.16,2379.36,349.70,352.15,25.11,0000 0000 0000 0000 000000
2015-03-05 00:51:56,0.23,4.87,0.00,21.62,27.25,29.48,4.91,27.47,1026.34,2028.01,1919.67,2196.33,2378.37,349.91,352.44,25.14,0000 0000 0000 0000 000000
2015-03-05 00:56:57,0.26,4.88,0.00,21.61,27.25,29.43,4.77,27.32,1026.38,2028.00,1918.05,2195.14,2377.00,349.82,352.76,25.17,0000 0000 0000 0000 000000
2015-03-05 01:01:59,0.22,4.89,0.00,21.60,27.25,29.43,4.89,27.48,1026.38,2028.00,1916.48,2193.98,2375.80,349.91,352.68,25.20,0000 0000 0000 0000 000000
2015-03-05 01:07:00,0.24,4.90,0.00,21.59,27.24,29.38,4.86,27.52,1026.38,2028.01,1914.95,2192.97,2374.62,350.25,352.96,25.23,0000 0000 0000 0000 000000
2015-03-05 01:12:01,0.14,4.90,0.00,21.57,27.22,29.34,4.82,27.43,1026.40,2028.01,1913.85,2192.07,2373.94,349.47,352.08,25.26,0000 0000 0000 0000 000000
2015-03-05 01:17:02,0.18,4.91,0.00,21.59,27.22,29.36,4.81,27.48,1026.48,2028.03,1912.87,2191.49,2373.10,349.67,352.49,25.29,0000 0000 0000 0000 000000
2015-03-05 01:22:04,0.15,4.91,0.00,21.61,27.22,29.37,4.82,27.48,1026.49,2028.04,1911.83,2190.80,2372.29,349.66,352.39,25.32,0000 0000 0000 0000 000000
2015-03-05 01:27:05,0.19,4.92,0.00,21.61,27.20,29.31,4.90,27.51,1026.71,2028.04,1910.63,2190.02,2371.43,350.34,352.88,25.35,0000 0000 0000 0000 000000
2015-03-05 01:32:07,0.19,4.92,0.00,21.58,27.20,29.28,4.80,27.52,1026.85,2028.05,1909.54,2189.16,2370.54,349.66,352.28,25.37,0000 0000 0000 0000 000000
2015-03-05 01:37:08,0.12,4.93,0.00,21.56,27.20,29.19,4.90,27.65,1026.87,2028.04,1908.68,2188.58,2369.98,349.75,352.62,25.40,0000 0000 0000 0000 000000
2015-03-05 01:42:09,0.12,4.93,0.00,21.60,27.19,29.30,4.89,27.63,1026.87,2028.04,1907.76,2187.97,2369.17,350.27,352.95,25.43,0000 0000 0000 0000 000000
2015-03-05 01:47:10,0.20,4.93,0.00,21.62,27.18,29.48,4.91,27.76,1026.87,2028.08,1906.61,2187.15,2368.31,350.59,353.48,25.46,0000 0000 0000 0000 000000
2015-03-05 01:52:12,0.20,4.94,0.00,21.62,27.17,29.49,4.82,27.60,1026.87,2028.07,1905.44,2186.20,2367.27,349.66,352.42,25.49,0000 0000 0000 0000 000000
2015-03-05 01:57:13,0.17,4.94,0.00,21.60,27.17,29.35,4.89,27.65,1026.87,2028.06,1904.30,2185.47,2366.63,350.17,353.04,25.52,0000 0000 0000 0000 000000
2015-03-05 02:02:14,0.12,4.95,0.00,21.59,27.17,29.35,4.92,27.68,1026.88,2028.07,1903.25,2184.87,2365.87,350.29,353.20,25.55,0000 0000 0000 0000 000000
2015-03-05 02:07:16,0.17,4.96,0.00,21.57,27.16,29.33,4.91,27.72,1026.91,2028.09,1902.43,2184.07,2365.07,349.45,352.45,25.58,0000 0000 0000 0000 000000
2015-03-05 02:12:17,0.14,4.96,0.00,21.54,27.15,29.30,4.84,27.73,1027.09,2028.09,1901.64,2183.64,2364.44,349.61,352.80,25.61,0000 0000 0000 0000 000000
2015-03-05 02:17:18,0.09,4.96,0.00,21.62,27.15,29.34,4.84,27.71,1027.20,2028.09,1900.76,2183.01,2363.90,350.02,352.77,25.64,0000 0000 0000 0000 000000
2015-03-05 02:22:19,0.20,4.97,0.00,21.64,27.15,29.31,4.92,27.72,1027.33,2028.21,1899.77,2182.29,2363.05,350.00,352.98,25.67,0000 0000 0000 0000 000000
2015-03-05 02:27:20,0.21,4.97,0.00,21.64,27.15,29.34,4.95,27.70,1027.35,2028.31,1898.56,2181.52,2362.13,350.64,353.59,25.70,0000 0000 0000 0000 000000
2015-03-05 02:32:22,0.21,4.98,0.00,21.62,27.14,29.31,4.80,27.58,1027.36,2028.26,1897.19,2180.54,2361.07,350.17,353.06,25.73,0000 0000 0000 0000 000000
2015-03-05 02:37:23,0.33,4.99,0.00,21.58,27.13,29.26,4.84,27.60,1027.37,2028.56,1895.63,2179.42,2359.92,350.00,353.06,25.76,0000 0000 0000 0000 000000
2015-03-05 02:42:24,0.16,4.99,0.00,21.59,27.12,29.23,4.88,27.64,1027.37,2028.63,1894.52,2178.84,2359.05,350.19,353.11,25.78,0000 0000 0000 0000 000000
2015-03-05 02:47:26,0.09,5.00,0.00,21.58,27.12,29.19,4.90,27.60,1027.38,2028.76,1893.98,2178.09,2358.44,350.32,353.63,25.81,0000 0000 0000 0000 000000
2015-03-05 02:52:27,0.11,5.00,0.00,21.58,27.12,29.20,4.79,27.33,1027.37,2028.76,1893.13,2177.74,2357.98,349.61,352.76,25.84,0000 0000 0000 0000 000000
2015-03-05 02:57:28,0.16,5.01,0.00,21.56,27.12,29.36,4.83,27.50,1027.39,2028.76,1892.45,2177.04,2357.18,350.01,353.11,25.87,0000 0000 0000 0000 000000
2015-03-05 03:02:29,0.13,5.01,0.00,21.60,27.12,29.43,4.84,27.49,1027.44,2028.66,1891.60,2176.53,2356.56,349.72,352.77,25.90,0000 0000 0000 0000 000000
2015-03-05 03:07:30,0.14,5.01,0.00,21.61,27.12,29.50,4.93,27.49,1027.44,2028.78,1890.59,2175.92,2355.90,350.34,353.48,25.93,0000 0000 0000 0000 000000
2015-03-05 03:12:32,0.18,5.02,0.00,21.62,27.12,29.43,4.88,27.48,1027.45,2028.81,1889.53,2175.08,2355.01,350.29,353.43,25.96,0000 0000 0000 0000 000000
2015-03-05 03:17:33,0.17,5.02,0.00,21.60,27.12,29.38,4.85,27.53,1027.41,2028.68,1888.51,2174.41,2354.11,349.48,352.59,25.99,0000 0000 0000 0000 000000
2015-03-05 03:22:34,0.20,5.03,0.00,21.59,27.12,29.42,4.96,27.49,1027.56,2028.79,1887.43,2173.67,2353.28,350.63,353.60,26.02,0000 0000 0000 0000 000000
2015-03-05 03:27:36,0.22,5.04,0.00,21.62,27.12,29.40,4.80,27.46,1027.74,2028.77,1885.92,2172.67,2352.20,349.71,352.70,26.05,0000 0000 0000 0000 000000
2015-03-05 03:32:37,0.20,5.04,0.00,21.61,27.12,29.42,4.87,27.46,1027.81,2028.58,1884.41,2171.52,2351.00,349.69,352.88,26.08,0000 0000 0000 0000 000000
2015-03-05 03:37:38,0.24,5.05,0.00,21.67,27.12,29.43,4.88,27.56,1027.80,2028.39,1882.76,2170.38,2349.68,349.74,352.91,26.11,0000 0000 0000 0000 000000
2015-03-05 03:42:39,0.22,5.06,0.00,21.70,27.12,29.50,4.87,27.72,1027.84,2028.16,1880.94,2168.98,2348.25,350.04,352.94,26.14,0000 0000 0000 0000 000000
2015-03-05 03:47:40,0.23,5.06,0.00,21.62,27.12,29.47,4.85,27.52,1027.85,2028.16,1879.40,2167.93,2347.01,349.79,353.14,26.17,0000 0000 0000 0000 000000
2015-03-05 03:52:42,0.36,5.07,0.00,21.64,27.12,29.44,4.91,27.47,1027.84,2028.41,1877.85,2166.78,2345.80,350.29,353.32,26.19,0000 0000 0000 0000 000000
2015-03-05 03:57:43,0.26,5.08,0.00,21.66,27.12,29.43,4.84,27.48,1027.85,2028.37,1876.07,2165.51,2344.44,350.12,353.23,26.22,0000 0000 0000 0000 000000
2015-03-05 04:02:44,0.20,5.09,0.00,21.67,27.13,29.47,4.91,27.48,1027.85,2028.08,1874.56,2164.29,2343.16,350.25,353.42,26.25,0000 0000 0000 0000 000000
2015-03-05 04:07:45,0.20,5.10,0.00,21.71,27.13,29.43,4.90,27.51,1027.85,2028.06,1873.19,2163.27,2342.07,350.03,353.09,26.28,0000 0000 0000 0000 000000
2015-03-05 04:12:47,0.17,5.10,0.00,21.68,27.14,29.41,4.85,27.43,1027.85,2028.08,1872.12,2162.57,2341.15,350.10,353.06,26.31,0000 0000 0000 0000 000000
2015-03-05 04:17:48,0.13,5.10,0.00,21.67,27.14,29.47,4.92,27.61,1027.85,2028.07,1871.22,2161.96,2340.41,349.96,353.10,26.34,0000 0000 0000 0000 000000
2015-03-05 04:22:49,0.15,5.11,0.00,21.69,27.14,29.48,4.88,27.57,1027.85,2028.07,1870.36,2161.16,2339.95,349.85,352.84,26.37,0000 0000 0000 0000 000000
2015-03-05 04:27:50,0.10,5.11,0.00,21.73,27.15,29.52,4.89,27.47,1027.85,2028.07,1869.66,2160.84,2339.15,349.69,352.63,26.40,0000 0000 0000 0000 000000
2015-03-05 04:32:52,0.15,5.12,0.00,21.72,27.15,29.49,4.88,27.52,1027.86,2028.13,1868.79,2160.07,2338.59,350.02,353.02,26.43,0000 0000 0000 0000 000000
2015-03-05 04:37:53,0.13,5.12,0.00,21.70,27.15,29.38,4.83,27.70,1027.86,2028.05,1867.91,2159.44,2337.85,349.31,352.64,26.46,0000 0000 0000 0000 000000
2015-03-05 04:42:54,0.11,5.12,0.00,21.70,27.15,29.39,4.85,27.65,1027.87,2028.05,1867.06,2158.93,2337.05,349.84,352.92,26.49,0000 0000 0000 0000 000000
2015-03-05 04:47:55,0.17,5.13,0.00,21.71,27.15,29.40,4.83,27.51,1027.87,2028.06,1866.30,2158.15,2336.60,349.48,352.65,26.52,0000 0000 0000 0000 000000
2015-03-05 04:52:57,0.07,5.13,0.00,21.71,27.15,29.35,4.86,27.44,1027.88,2028.09,1865.70,2157.92,2335.99,349.80,352.71,26.55,0000 0000 0000 0000 000000
2015-03-05 04:57:58,0.17,5.14,0.00,21.72,27.16,29.34,4.95,27.55,1027.99,2028.08,1864.74,2157.09,2335.14,350.25,353.35,26.58,0000 0000 0000 0000 000000
2015-03-05 05:03:00,0.21,5.14,0.00,21.78,27.17,29.38,4.93,27.54,1028.06,2028.06,1863.60,2156.32,2334.34,349.68,352.73,26.60,0000 0000 0000 0000 000000
2015-03-05 05:08:01,0.09,5.14,0.00,21.80,27.17,29.47,4.83,27.51,1028.18,2028.04,1862.86,2155.78,2333.60,349.55,352.40,26.63,0000 0000 0000 0000 000000
2015-03-05 05:13:02,0.13,5.15,0.00,21.79,27.17,29.46,4.87,27.48,1028.08,2028.02,1861.98,2155.02,2332.83,349.77,352.73,26.66,0000 0000 0000 0000 000000
2015-03-05 05:18:03,0.18,5.15,0.00,21.79,27.17,29.41,4.95,27.57,1028.18,2028.01,1861.11,2154.28,2332.04,350.22,353.39,26.69,0000 0000 0000 0000 000000
2015-03-05 05:23:04,0.13,5.16,0.00,21.78,27.17,29.51,4.86,27.55,1028.32,2028.01,1860.31,2153.84,2331.34,349.68,352.65,26.72,0000 0000 0000 0000 000000
2015-03-05 05:28:06,0.13,5.16,0.00,21.79,27.17,29.59,4.96,27.55,1028.33,2028.00,1859.62,2153.09,2330.81,350.53,353.65,26.75,0000 0000 0000 0000 000000
2015-03-05 05:33:07,0.12,5.17,0.00,21.80,27.18,29.66,4.81,27.48,1028.33,2028.00,1858.82,2152.67,2330.02,349.13,351.90,26.78,0000 0000 0000 0000 000000
2015-03-05 05:38:08,0.13,5.17,0.00,21.83,27.19,29.66,4.91,27.58,1028.33,2028.00,1857.98,2152.03,2329.36,349.99,353.16,26.81,0000 0000 0000 0000 000000
2015-03-05 05:43:09,0.15,5.17,0.00,21.85,27.20,29.75,4.82,27.61,1028.33,2028.00,1857.10,2151.44,2328.87,349.44,352.50,26.84,0000 0000 0000 0000 000000
2015-03-05 05:48:10,0.11,5.18,0.00,21.85,27.20,29.80,4.83,27.50,1028.33,2028.00,1856.35,2150.99,2328.09,349.64,352.83,26.87,0000 0000 0000 0000 000000
2015-03-05 05:53:12,0.17,5.18,0.00,21.84,27.20,29.73,4.82,27.56,1028.33,2028.00,1855.61,2150.19,2327.42,349.99,353.26,26.90,0000 0000 0000 0000 000000
2015-03-05 05:58:13,0.04,5.19,0.00,21.83,27.20,29.77,4.92,27.54,1028.34,2028.00,1854.98,2149.88,2326.94,350.39,353.54,26.93,0000 0000 0000 0000 000000
2015-03-05 06:03:14,0.18,5.19,0.00,21.79,27.20,29.72,4.86,27.49,1028.34,2028.00,1854.14,2149.08,2326.13,349.26,352.39,26.96,0000 0000 0000 0000 000000
2015-03-05 06:08:15,0.15,5.19,0.00,21.81,27.21,29.73,4.90,27.51,1028.34,2028.00,1853.41,2148.64,2325.56,350.09,353.09,26.99,0000 0000 0000 0000 000000
2015-03-05 06:13:17,0.10,5.20,0.00,21.87,27.22,29.80,4.87,27.47,1028.36,2028.00,1852.65,2147.98,2324.88,349.86,352.91,27.01,0000 0000 0000 0000 000000
2015-03-05 06:18:18,0.23,5.20,0.00,21.88,27.22,29.76,4.82,27.47,1028.35,2028.00,1851.39,2147.04,2323.84,350.10,353.07,27.04,0000 0000 0000 0000 000000
2015-03-05 06:23:20,0.27,5.21,0.00,21.87,27.22,29.75,4.87,27.50,1028.35,2027.99,1849.82,2145.91,2322.60,349.74,352.75,27.07,0000 0000 0000 0000 000000
2015-03-05 06:28:21,0.18,5.22,0.00,21.84,27.22,29.79,4.83,27.36,1028.35,2027.99,1848.70,2145.04,2321.59,349.50,352.60,27.10,0000 0000 0000 0000 000000
2015-03-05 06:33:22,0.17,5.22,0.00,21.86,27.23,29.81,4.90,27.40,1028.40,2027.99,1847.72,2144.19,2320.80,350.27,353.43,27.13,0000 0000 0000 0000 000000
2015-03-05 06:38:24,0.13,5.23,0.00,21.87,27.24,29.79,4.94,27.68,1028.47,2027.99,1846.82,2143.71,2320.03,349.80,352.89,27.16,0000 0000 0000 0000 000000
2015-03-05 06:43:25,0.13,5.23,0.00,21.84,27.24,29.72,4.89,27.63,1028.64,2027.99,1845.94,2143.02,2319.19,349.90,353.09,27.19,0000 0000 0000 0000 000000
2015-03-05 06:48:27,0.18,5.24,0.00,21.81,27.25,29.70,4.89,27.45,1028.74,2027.98,1844.99,2142.24,2318.62,350.11,353.26,27.22,0000 0000 0000 0000 000000
2015-03-05 06:53:28,0.13,5.24,0.00,21.88,27.25,29.82,4.83,27.63,1028.77,2027.98,1844.08,2141.69,2317.93,349.65,352.97,27.25,0000 0000 0000 0000 000000
2015-03-05 06:58:29,0.14,5.25,0.00,21.77,27.25,29.70,4.83,27.54,1028.81,2027.99,1843.24,2141.02,2317.11,350.17,353.56,27.28,0000 0000 0000 0000 000000
2015-03-05 07:03:30,0.18,5.25,0.00,21.75,27.25,29.66,4.90,27.58,1028.82,2027.98,1842.37,2140.33,2316.44,349.86,353.33,27.31,0000 0000 0000 0000 000000
2015-03-05 07:08:32,0.08,5.25,0.00,21.78,27.25,29.69,4.86,27.45,1028.82,2027.98,1841.57,2139.92,2315.90,349.78,353.32,27.34,0000 0000 0000 0000 000000
2015-03-05 07:13:33,0.17,5.26,0.00,21.81,27.26,29.69,4.89,27.54,1028.82,2027.99,1840.73,2139.11,2315.10,350.29,353.63,27.37,0000 0000 0000 0000 000000
2015-03-05 07:18:34,0.11,5.26,0.00,21.85,27.27,29.71,4.95,27.65,1028.82,2027.99,1839.96,2138.74,2314.53,349.88,353.11,27.40,0000 0000 0000 0000 000000
2015-03-05 07:23:35,0.12,5.27,0.00,21.79,27.27,29.69,4.91,27.63,1028.83,2027.99,1839.10,2138.03,2313.94,350.24,353.57,27.42,0000 0000 0000 0000 000000
2015-03-05 07:28:36,0.18,5.27,0.00,21.79,27.27,29.69,4.92,27.79,1028.83,2027.98,1838.21,2137.38,2313.11,349.81,353.22,27.45,0000 0000 0000 0000 000000
2015-03-05 07:33:37,0.10,5.27,0.00,21.76,27.27,29.58,4.88,27.65,1028.83,2027.97,1837.56,2136.96,2312.42,349.80,353.44,27.48,0000 0000 0000 0000 000000
2015-03-05 07:38:39,0.15,5.28,0.00,21.79,27.27,29.58,4.84,27.75,1028.84,2027.97,1836.71,2136.15,2311.86,350.40,353.67,27.51,0000 0000 0000 0000 000000
2015-03-05 07:43:40,0.09,5.28,0.00,21.80,27.27,29.55,4.88,27.67,1028.85,2027.96,1835.93,2135.82,2311.06,349.81,352.95,27.54,0000 0000 0000 0000 000000
2015-03-05 07:48:41,0.17,5.29,0.00,21.76,27.26,29.56,4.97,27.76,1028.95,2027.97,1835.06,2135.05,2310.54,350.66,354.16,27.57,0000 0000 0000 0000 000000
2015-03-05 07:53:42,0.13,5.29,0.00,21.78,27.26,29.55,4.85,27.71,1029.27,2027.96,1834.16,2134.59,2309.94,350.10,353.61,27.60,0000 0000 0000 0000 000000
2015-03-05 07:58:44,0.12,5.29,0.00,21.76,27.25,29.61,4.96,27.76,1029.31,2027.90,1833.41,2133.98,2309.11,350.16,353.67,27.63,0000 0000 0000 0000 000000
2015-03-05 08:03:45,0.16,5.30,0.00,21.79,27.25,29.61,4.88,27.68,1029.31,2027.94,1832.69,2133.23,2308.52,350.00,353.40,27.66,0000 0000 0000 0000 000000
2015-03-05 08:08:46,0.08,5.30,0.00,21.72,27.25,29.60,4.85,27.67,1029.31,2027.89,1831.87,2132.80,2307.89,350.22,353.81,27.69,0000 0000 0000 0000 000000
2015-03-05 08:13:47,0.17,5.31,0.00,21.71,27.25,29.61,4.90,27.70,1029.31,2027.94,1831.04,2132.05,2307.06,350.65,354.35,27.72,0000 0000 0000 0000 000000
2015-03-05 08:18:49,0.16,5.31,0.00,21.71,27.25,29.62,4.88,27.70,1029.31,2027.95,1830.25,2131.61,2306.50,349.85,353.56,27.75,0000 0000 0000 0000 000000
2015-03-05 08:23:50,0.12,5.31,0.00,21.75,27.25,29.62,4.85,27.63,1029.31,2027.97,1829.40,2130.99,2305.83,349.56,353.20,27.78,0000 0000 0000 0000 000000
2015-03-05 08:28:52,0.17,5.32,0.00,21.70,27.24,29.62,4.89,27.63,1029.32,2027.96,1828.53,2130.20,2305.04,349.87,353.39,27.81,0000 0000 0000 0000 000000
2015-03-05 08:33:53,0.15,5.32,0.00,21.68,27.23,29.70,4.99,27.81,1029.32,2027.96,1827.65,2129.70,2304.30,350.56,354.17,27.83,0000 0000 0000 0000 000000
2015-03-05 08:38:54,0.10,5.33,0.00,21.71,27.22,29.66,4.96,27.81,1029.33,2027.96,1826.84,2129.01,2303.69,350.24,353.72,27.86,0000 0000 0000 0000 000000
2015-03-05 08:43:55,0.16,5.33,0.00,21.69,27.22,29.57,4.89,27.82,1029.37,2027.96,1826.03,2128.24,2303.01,349.91,353.53,27.89,0000 0000 0000 0000 000000
2015-03-05 08:48:57,0.12,5.34,0.00,21.66,27.22,29.48,4.88,27.84,1029.42,2027.98,1825.20,2127.92,2302.37,349.86,353.63,27.92,0000 0000 0000 0000 000000
2015-03-05 08:53:58,0.16,5.34,0.00,21.63,27.22,29.44,4.97,27.72,1029.69,2027.98,1824.36,2127.11,2301.74,350.31,353.91,27.95,0000 0000 0000 0000 000000
2015-03-05 08:58:59,0.14,5.34,0.00,21.68,27.20,29.50,4.87,27.74,1029.74,2027.98,1823.54,2126.62,2301.03,350.35,353.92,27.98,0000 0000 0000 0000 000000
2015-03-05 09:04:01,0.13,5.35,0.00,21.69,27.20,29.52,4.90,27.73,1029.78,2027.98,1822.67,2126.00,2300.32,350.30,353.87,28.01,0000 0000 0000 0000 000000
2015-03-05 09:09:02,0.13,5.35,0.00,21.66,27.20,29.50,4.82,27.79,1029.78,2027.98,1821.90,2125.25,2299.73,349.40,353.34,28.04,0000 0000 0000 0000 000000
2015-03-05 09:14:03,0.10,5.36,0.00,21.60,27.20,29.50,4.89,27.72,1029.80,2027.98,1821.06,2124.88,2299.01,349.70,353.56,28.07,0000 0000 0000 0000 000000
2015-03-05 09:19:05,0.17,5.36,0.00,21.61,27.18,29.50,4.95,27.68,1029.80,2027.99,1820.27,2124.08,2298.24,350.40,354.49,28.10,0000 0000 0000 0000 000000
2015-03-05 09:24:06,0.16,5.37,0.00,21.57,27.17,29.40,4.92,27.82,1029.80,2027.99,1819.42,2123.55,2297.73,350.25,353.97,28.13,0000 0000 0000 0000 000000
2015-03-05 09:29:07,0.07,5.37,0.00,21.61,27.17,29.44,4.78,27.68,1029.80,2027.98,1818.79,2123.00,2297.00,349.73,353.76,28.16,0000 0000 0000 0000 000000
2015-03-05 09:34:09,0.17,5.37,0.00,21.58,27.17,29.59,4.85,27.61,1029.81,2027.98,1818.00,2122.27,2296.17,350.15,354.15,28.19,0000 0000 0000 0000 000000
2015-03-05 09:39:10,0.11,5.38,0.00,21.56,27.15,29.60,4.86,27.57,1029.82,2027.99,1817.12,2121.91,2295.71,349.18,353.12,28.22,0000 0000 0000 0000 000000
2015-03-05 09:44:11,0.16,5.38,0.00,21.55,27.15,29.56,4.88,27.69,1029.87,2027.98,1816.15,2121.10,2295.02,350.40,354.21,28.24,0000 0000 0000 0000 000000
2015-03-05 09:49:13,0.14,5.38,0.00,21.59,27.13,29.48,4.93,27.89,1029.90,2027.99,1815.33,2120.76,2294.48,350.35,354.39,28.27,0000 0000 0000 0000 000000
2015-03-05 09:54:14,0.12,5.39,0.00,21.51,27.12,29.47,4.98,27.91,1030.15,2027.99,1814.54,2120.04,2293.97,350.03,354.20,28.30,0000 0000 0000 0000 000000
2015-03-05 09:59:15,0.15,5.39,0.00,21.55,27.12,29.53,4.93,27.84,1030.22,2027.99,1813.80,2119.52,2293.17,349.82,353.71,28.33,0000 0000 0000 0000 000000
2015-03-05 10:04:17,0.11,5.40,0.00,21.52,27.10,29.49,4.98,27.93,1030.23,2027.99,1812.92,2118.95,2292.61,350.26,354.38,28.36,0000 0000 0000 0000 000000
2015-03-05 10:09:18,0.16,5.40,0.00,21.49,27.10,29.43,4.97,27.93,1030.21,2028.00,1812.03,2118.14,2291.99,350.06,354.16,28.39,0000 0000 0000 0000 000000
2015-03-05 10:14:20,0.18,5.41,0.00,21.50,27.09,29.53,4.96,27.97,1030.27,2028.00,1811.02,2117.67,2291.17,350.28,354.44,28.42,0000 0000 0000 0000 000000
2015-03-05 10:19:21,0.25,5.41,0.00,21.47,27.07,29.46,4.93,27.77,1030.28,2028.00,1809.62,2116.65,2290.10,350.67,354.63,28.45,0000 0000 0000 0000 000000
2015-03-05 10:24:23,0.39,5.42,0.00,21.43,27.07,29.43,4.93,27.72,1030.29,2028.02,1807.52,2115.10,2288.54,349.87,354.16,28.48,0000 0000 0000 0000 000000
2015-03-05 10:29:24,0.28,5.43,0.00,21.46,27.07,29.46,4.95,27.73,1030.29,2028.05,1805.59,2113.85,2287.07,350.08,354.28,28.51,0000 0000 0000 0000 000000
2015-03-05 10:34:26,0.18,5.44,0.00,21.46,27.05,29.42,4.97,27.87,1030.29,2028.05,1804.44,2113.03,2286.11,350.45,354.36,28.54,0000 0000 0000 0000 000000
2015-03-05 10:39:27,0.20,5.45,0.00,21.49,27.05,29.55,4.93,27.73,1030.29,2028.05,1803.24,2112.22,2285.26,350.16,353.93,28.57,0000 0000 0000 0000 000000
2015-03-05 10:44:28,0.20,5.45,0.00,21.45,27.03,29.53,4.89,27.73,1030.29,2028.03,1802.05,2111.30,2284.26,350.13,354.27,28.60,0000 0000 0000 0000 000000
2015-03-05 10:49:30,0.12,5.46,0.00,21.37,27.02,29.51,4.92,27.74,1030.29,2028.09,1801.11,2110.98,2283.76,349.57,353.84,28.63,0000 0000 0000 0000 000000
2015-03-05 10:54:31,0.18,5.46,0.00,21.45,27.01,29.61,4.93,27.74,1030.29,2028.10,1800.06,2110.22,2282.99,350.52,354.75,28.66,0000 0000 0000 0000 000000
2015-03-05 10:59:33,0.26,5.47,0.00,21.40,27.00,29.46,4.96,27.76,1030.29,2028.42,1799.01,2109.71,2282.15,350.15,354.52,28.68,0000 0000 0000 0000 000000
2015-03-05 11:04:34,0.13,5.47,0.00,21.44,27.00,29.59,4.94,27.60,1030.29,2028.40,1797.87,2108.98,2281.33,350.62,354.83,28.71,0000 0000 0000 0000 000000
2015-03-05 11:09:35,0.23,5.48,0.00,21.31,26.97,29.47,4.97,27.72,1030.30,2028.69,1797.00,2108.21,2280.76,350.30,354.76,28.74,0000 0000 0000 0000 000000
2015-03-05 11:14:37,0.30,5.49,0.00,21.34,26.97,29.48,4.91,27.72,1030.30,2028.83,1795.78,2107.42,2279.60,350.03,354.50,28.77,0000 0000 0000 0000 000000
2015-03-05 11:19:38,0.24,5.50,0.00,21.32,26.96,29.44,4.82,27.66,1030.29,2028.87,1794.08,2106.28,2278.41,349.73,354.22,28.80,0000 0000 0000 0000 000000
2015-03-05 11:24:39,0.25,5.50,0.00,21.26,26.95,29.37,4.94,27.82,1030.30,2028.91,1792.75,2105.35,2277.47,350.49,354.92,28.83,0000 0000 0000 0000 000000
2015-03-05 11:29:40,0.19,5.51,0.00,21.30,26.93,29.36,4.92,27.78,1030.29,2028.93,1791.73,2104.62,2276.56,349.96,354.42,28.86,0000 0000 0000 0000 000000
2015-03-05 11:34:42,0.43,5.52,0.00,21.28,26.92,29.31,4.86,27.64,1030.31,2028.98,1789.53,2102.96,2274.73,349.43,354.03,28.89,0000 0000 0000 0000 000000
2015-03-05 11:39:43,0.46,5.53,0.00,21.26,26.91,29.36,4.92,27.75,1030.32,2028.97,1786.95,2101.00,2272.71,350.05,354.41,28.92,0000 0000 0000 0000 000000
2015-03-05 11:44:44,0.36,5.54,0.00,21.23,26.90,29.37,4.94,27.57,1030.32,2028.97,1784.80,2099.48,2270.91,349.78,354.29,28.95,0000 0000 0000 0000 000000
2015-03-05 11:49:45,0.37,5.55,0.00,21.23,26.89,29.45,4.89,27.55,1030.30,2028.98,1782.68,2097.91,2269.27,350.01,354.54,28.98,0000 0000 0000 0000 000000
2015-03-05 11:54:47,0.35,5.56,0.00,21.17,26.87,29.39,4.89,27.48,1030.30,2028.98,1780.61,2096.48,2267.69,350.02,354.52,29.01,0000 0000 0000 0000 000000
2015-03-05 11:59:48,0.30,5.58,0.00,21.20,26.86,29.51,4.88,27.52,1030.29,2028.99,1778.77,2095.18,2266.31,349.81,354.17,29.04,0000 0000 0000 0000 000000
2015-03-05 12:04:49,0.32,5.58,0.00,21.14,26.85,29.49,4.84,27.63,1030.29,2028.99,1776.95,2093.84,2264.86,349.61,354.19,29.07,0000 0000 0000 0000 000000
2015-03-05 12:09:51,0.29,5.59,0.00,21.17,26.82,29.51,4.92,27.62,1030.29,2028.99,1775.31,2092.68,2263.60,349.85,354.49,29.09,0000 0000 0000 0000 000000
2015-03-05 12:14:52,0.30,5.60,0.00,21.13,26.81,29.47,4.88,27.49,1030.30,2028.99,1773.50,2091.55,2262.34,350.03,354.56,29.12,0000 0000 0000 0000 000000
2015-03-05 12:19:54,0.29,5.61,0.00,21.09,26.80,29.40,4.98,27.52,1030.30,2028.99,1771.76,2090.34,2261.05,350.50,355.19,29.15,0000 0000 0000 0000 000000
2015-03-05 12:24:55,0.25,5.62,0.00,21.10,26.78,29.42,4.95,27.54,1030.29,2028.99,1770.21,2089.28,2259.90,350.07,354.66,29.18,0000 0000 0000 0000 000000
2015-03-05 12:29:57,0.27,5.63,0.00,21.05,26.77,29.38,4.91,27.57,1030.29,2029.01,1768.71,2088.25,2258.80,349.76,354.17,29.21,0000 0000 0000 0000 000000
2015-03-05 12:34:58,0.25,5.63,0.00,21.06,26.75,29.36,4.92,27.48,1030.29,2029.01,1767.24,2087.22,2257.65,349.55,354.10,29.24,0000 0000 0000 0000 000000
2015-03-05 12:39:59,0.28,5.64,0.00,21.06,26.74,29.39,4.91,27.63,1030.29,2029.02,1765.63,2086.10,2256.51,349.69,354.43,29.27,0000 0000 0000 0000 000000
2015-03-05 12:45:01,0.25,5.65,0.00,21.02,26.72,29.38,4.85,27.56,1030.29,2029.04,1764.01,2085.06,2255.35,349.92,354.79,29.30,0000 0000 0000 0000 000000
2015-03-05 12:50:02,0.27,5.66,0.00,21.01,26.70,29.37,4.94,27.52,1030.28,2029.13,1762.59,2084.12,2254.32,350.16,354.93,29.33,0000 0000 0000 0000 000000
2015-03-05 12:55:03,0.26,5.66,0.00,20.93,26.69,29.25,4.85,27.50,1030.27,2029.25,1761.36,2083.16,2253.33,349.46,354.36,29.36,0000 0000 0000 0000 000000
2015-03-05 13:00:04,0.28,5.67,0.00,20.89,26.67,29.26,4.96,27.73,1030.23,2029.56,1760.02,2082.24,2252.29,350.05,354.98,29.39,0000 0000 0000 0000 000000